Regional Weather Roundup
Issued by NWS

Home | Current Version | Previous Version | Graphics & Text | Print | Product List | Glossary On
Versions: 1 2 3 4 5 6 7 8 9 10 11 12 13 14 15 16 17 18 19 20 21 22 23 24 25 26 27 28 29 30 31 32 33 34 35 36 37 38 39 40 41 42 43 44 45 46 47 48 49 50
000
ASUS45 KCYS 301310
RWRWY

WYOMING REGIONAL WEATHER ROUNDUP
NATIONAL WEATHER SERVICE CHEYENNE WY
700 AM MDT SAT AUG 30 2014

NOTE:  "FAIR" INDICATES FEW OR NO CLOUDS BELOW 12,000 FEET
WITH NO SIGNIFICANT WEATHER AND/OR OBSTRUCTIONS TO VISIBILITY.

WYZ001-301400-
YELLOWSTONE NATIONAL PARK

CITY           SKY/WX    TMP DP  RH WIND       PRES   REMARKS
LK YELLOWSTONE   N/A     43  41  93 NW6       30.11S
W YELLOWSTONE  NOT AVBL

$$
WYZ002>013-054>058-071-098>099-301400-
NORTHERN WYOMING

CITY           SKY/WX    TMP DP  RH WIND       PRES   REMARKS
JACKSON        PTCLDY    45  43  93 CALM      30.03F
CODY           MOCLDY    61  45  55 S7        29.90S
GREYBULL       CLOUDY    57  48  72 CALM      29.84F
WORLAND        CLOUDY    61  46  57 S7        29.86F
SHERIDAN       PTCLDY    50  46  86 NW5       29.83F
BUFFALO        PTCLDY    61  42  49 SW8       29.91S
GILLETTE       CLEAR     57  52  83 S18       29.91S
HULETT         FAIR      61  50  67 MISG      29.92
NEWCASTLE      FAIR      55  46  71 SE9       29.97

$$
WYZ014>020-022>026-101>103-301400-
CENTRAL WYOMING

CITY           SKY/WX    TMP DP  RH WIND       PRES   REMARKS
BIG PINEY      PTCLDY    43  38  82 N5        30.11R
PINEDALE       MOSUNNY   45  43  93 SE5       30.12R
DUBOIS         FAIR      45  36  70 NW6       30.06F
LANDER         MOCLDY    59  40  49 CALM      29.97F
RIVERTON       MOCLDY    55  44  66 SE5       29.98S
CASPER         CLEAR     63  41  44 S12       30.00R
DOUGLAS        CLEAR     51  49  92 SE8       29.99S

$$
WYZ021-027>030-104>119-301400-
SOUTHERN WYOMING

CITY           SKY/WX    TMP DP  RH WIND       PRES   REMARKS
EVANSTON       CLEAR     53  39  59 SW14      30.10S
KEMMERER       MOSUNNY   48  39  71 CALM      30.11F
FORT BRIDGER   FAIR      57  38  49 W5        30.12S
ROCK SPRINGS   PTCLDY    54  38  54 SE10      30.10S
DIXON          FAIR      49  45  86 CALM      30.19S
RAWLINS        CLEAR     58  38  47 VRB3      30.14R
SARATOGA       FAIR      50  41  71 SE6       30.18S
LARAMIE        CLEAR     46  41  82 S10       30.18S
CHEYENNE       CLEAR     49  46  90 SW6       30.12R
TORRINGTON     PTCLDY    55  52  89 E9        29.99S
PINE BLUFFS    FAIR      46  45  93 SW3       30.07F

$$


USA.gov is the U.S. government's official web portal to all federal, state and local government web resources and services.